This is the latest recevied weather packets stored in our database for station/object KGRR-WX. If no packets are shown the sender has not sent any weather packets the latest 10 day(s).
| Time | Temp. | Humidity | Pressure | Rain* | Wind** | Luminosity | Snow |
|---|---|---|---|---|---|---|---|
| 1787996707 | 15° C | 83% | 991.5 hPa | 0 mm | - | - | - |
| 1787995807 | 15° C | 83% | 991.4 hPa | 0 mm | - | - | - |
| 1787994904 | 14.44° C | 83% | 991.4 hPa | 0 mm | - | - | - |
| 1787994005 | 14.44° C | 83% | 991.4 hPa | 0 mm | - | - | - |
| 1787993107 | 14.44° C | 85% | 991.1 hPa | 0 mm | - | - | - |
| 1787992207 | 14.44° C | 86% | 990.6 hPa | 0 mm | - | - | - |
| 1787991304 | 14.44° C | 86% | 990.6 hPa | 0 mm | - | - | - |
| 1787990407 | 14.44° C | 86% | 990.6 hPa | 0 mm | - | - | - |
| 1787989504 | 14.44° C | 84% | 990.9 hPa | 0 mm | - | - | - |
| 1787988607 | 15° C | 84% | 990.9 hPa | 0 mm | - | - | - |
| 1787987704 | 14.44° C | 84% | 990.9 hPa | 0 mm | - | - | - |
| 1787986805 | 14.44° C | 84% | 990.9 hPa | 0 mm | - | - | - |
| 1787985005 | 15° C | 79% | 990.6 hPa | 0 mm | - | - | - |
| 1787984104 | 15° C | 79% | 990.6 hPa | 0 mm | - | - | - |
| 1787983207 | 15° C | 79% | 990.6 hPa | 0 mm | - | - | - |
| 1787982317 | 15° C | 78% | 990.7 hPa | 0 mm | - | - | - |
| 1787981405 | 15.56° C | 78% | 990.8 hPa | 0 mm | - | - | - |
| 1787980507 | 15° C | 78% | 990.8 hPa | 0 mm | - | - | - |
| 1787979609 | 15.56° C | 78% | 990.8 hPa | 0 mm | - | - | - |
| 1787978717 | 15.56° C | 76% | 990.5 hPa | 0 mm | - | - | - |
| 1787977805 | 15.56° C | 77% | 990.7 hPa | 0 mm | - | - | - |
| 1787976907 | 16.11° C | 77% | 990.7 hPa | 0 mm | - | - | - |
| 1787976005 | 16.11° C | 77% | 990.7 hPa | 0 mm | - | - | - |
| 1787975105 | 16.67° C | 66% | 990.8 hPa | 0 mm | - | - | - |
| 1787974207 | 17.22° C | 66% | 991 hPa | 0 mm | - | - | - |
* Rain latest hour (hover to see other rain measurements)
** Current wind speed in m/s (hover to see current wind gust speed)